Regional Weather Roundup
Issued by NWS Upton, NY

Current Version | Previous Version | Text Only | Print | Product List | Glossary On
Versions: 1 2 3 4 5 6 7 8 9 10 11 12 13 14 15 16 17 18 19 20 21 22 23 24 25 26 27 28 29 30 31 32 33 34 35 36 37 38 39 40 41 42 43 44 45 46 47 48 49 50
000 ASUS41 KOKX 310304 RWROKX REGIONAL WEATHER ROUNDUP NATIONAL WEATHER SERVICE NEW YORK NY 1100 PM EDT TUE AUG 30 2016 NOTE: "FAIR" INDICATES FEW OR NO CLOUDS BELOW 12,000 FEET WITH NO SIGNIFICANT WEATHER AND/OR OBSTRUCTIONS TO VISIBILITY. NYZ071-072-176-178-NJZ106-104-310400- NEW YORK CITY METRO AREA CITY SKY/WX TMP DP RH WIND PRES REMARKS Central Park CLOUDY 76 65 68 CALM 30.09R LaGuardia APRT CLOUDY 77 69 76 S10 30.05S Kennedy INTL MOCLDY 75 72 90 S8 30.07R Newark/Liberty MOCLDY 76 68 76 S7 30.06R Bronx Bot Gard N/A 73 66 78 SE3 30.08R Wall St Helipt CLOUDY 75 70 83 SW5 30.07S Teterboro CLOUDY 75 67 76 S6 30.05R $$ NYZ177-179-078>081-310400- LONG ISLAND NEW YORK CITY SKY/WX TMP DP RH WIND PRES REMARKS Farmingdale PTCLDY 75 68 78 S5 30.06S MacArthur/ISP MOCLDY 74 66 76 S5 30.05F Shirley PTCLDY 71 66 84 S3 30.07S Riverhead NOT AVBL Westhampton MOCLDY 64 60 87 CALM 30.08F Southampton N/A 73 68 83 SW5 30.03S Bridgehampton NOT AVBL East Hampton FAIR 68 65 90 SW3 30.06F Montauk N/A 72 67 84 VRB5 30.07F $$ NYZ052-065-067-310400- HUDSON VALLEY CITY SKY/WX TMP DP RH WIND PRES REMARKS White Plains CLOUDY 70 65 84 CALM 30.06F Newburgh CLEAR 68 63 83 CALM 30.07S Montgomery PTCLDY 64 61 90 SW3 30.06R Poughkeepsie PTCLDY 66 61 84 CALM 30.03F Albany PTCLDY 67 59 75 CALM 30.04S $$ NJZ001-105-106-008-010-013-015-019>022-104-310400- NEW JERSEY CITY SKY/WX TMP DP RH WIND PRES REMARKS Newark/Liberty MOCLDY 76 68 76 S7 30.06R Teterboro CLOUDY 75 67 76 S6 30.05R Caldwell CLOUDY 75 66 73 CALM 30.06S Morristown MOCLDY 66 64 94 CALM 30.06S Somerville MOCLDY 70 66 87 CALM 30.05R Linden FAIR 75 68 79 CALM 30.08R Sussex MOCLDY 66 64 93 CALM 30.07R Abdover N/A 65 63 93 CALM 30.07F Trenton PTCLDY 74 69 85 S6 30.06R Millville CLEAR 70 70 100 CALM 30.05F FOG Atlantic City PTCLDY 72 69 90 CALM 30.06R Wrightstown CLEAR 71 70 95 SE2 30.04R Toms River CLEAR 69 66 90 CALM 30.06S Belmar PTCLDY 73 70 90 SE3 30.08R $$ PAZ047>061-062-071-310400- EASTERN PENNSYLVANIA CITY SKY/WX TMP DP RH WIND PRES REMARKS Philadelphia PTCLDY 76 71 85 SE5 30.05S Allentown MOCLDY 69 61 75 CALM 30.06S Scranton CLOUDY 69 61 75 E8 30.07F $$ CTZ002-004>006-009-010-012-RIZ004-006-007-MAZ004-011-015-310400- SOUTHERN NEW ENGLAND IN CT CITY SKY/WX TMP DP RH WIND PRES REMARKS Bradley INTL CLOUDY 69 58 67 S5 30.05R Hartford CLOUDY 73 64 73 S3 30.04S Danbury CLOUDY 68 62 81 CALM 30.08S Wtrbury/Oxford N/A 68 59 73 CALM 30.08F Bridgeport MOCLDY 76 66 71 SW10 30.06S Meriden CLOUDY 69 63 81 CALM 30.05F New Haven PTCLDY 74 65 73 SW6 30.06F Chester FAIR 70 64 83 SW5 30.07F Groton MOCLDY 71 66 84 SW5 30.05F Wilimantic CLOUDY 66 63 90 CALM 30.06F IN RI CITY SKY/WX TMP DP RH WIND PRES REMARKS Providence CLEAR 68 64 87 S6 30.06S Block Island PTCLDY 72 66 81 SW10 30.07F Westerly PTCLDY 69 64 84 CALM 30.07S IN MA CITY SKY/WX TMP DP RH WIND PRES REMARKS Boston CLEAR 71 63 75 SW13 30.04R Worcester CLEAR 65 53 65 SW6 30.08R Westfield CLEAR 64 59 83 CALM 30.05R Provincetown CLEAR 68 64 87 S8 30.06S Nantucket CLEAR 67 63 87 S9 30.07F $$ ANZ330-335-338-340-345-350-353-355-310400- COASTAL MARINE OBSERVATIONS STATION/POSITION TIME SKY/WX TEMP WIND PRES VSBY WAVE AIR SEA DIR/SP/G HT/PER (UTC) (F) (DEG/KT/KT) (MB) (MI) (FT/S) NY HARB ENTRANCE 0150 76 77 170/ 10/ 12 1017.4 5/12 20S FIRE ISLAND 0150 76 76 160/ 10/ 12 1017.5 4/11 GREAT SOUTH BAY 0200 76 80 190/ 10/ 10 N/A 23 SSW MONTAUK P 0150 75 78 210/ 10/ 12 1018.5 4/12 15 E BARNEGAT LI 0200 77 N/A 5/12 HUDSON CANYON 0150 76 79 1018.0 4/11 KINGS POINT 0200 76 77 1017.7 EXECUTION ROCKS 0200 76 180/ 8/ 10 N/A CENTRAL LI SOUND 0230 74 76 210/ 12/ 14 N/A 2/ 3 EASTERN LI SOUND 0200 72 71 200/ 6/ 8 N/A ROBBINS REEF 0200 75 1017.1 $$ >>>>>>>>>>>>>>>>>>>>>>>>>>>> KEY <<<<<<<<<<<<<<<<<<<<<<<<<<< > < > SKY/WX - Sky Condition/Present Weather < > TMP - Temperature in Fahrenheit < > DP - Dew Point in Fahrenheit < > RH - Relative Humidity in Percent < > WIND - Direction (from) and Speed in MPH < > PRES - Mean Sea Level Pressure (inches of Hg) < > WCI - Wind Chill Index < > VSB - VISIBILITY IN MILES < > HX - HEAT INDEX < > TC - TEMPERATURE IN CELSIUS < > VRB - VARIABLE WIND DIRECTION < > < >>>>>>>>>>>>>>>>>>>>>>>>>>>> KEY <<<<<<<<<<<<<<<<<<<<<<<<<<<

USA.gov is the U.S. government's official web portal to all federal, state and local government web resources and services.